This demonstration page uses our WeatherBlox Daily Observations layout. Learn more.

Left ArrowRight Arrow

Hourly Observations for April 28, 2022

Temp ( °F °C ) Dew Point ( °F °C ) Humidity (%) Winds ( mph kmh ) Pressure ( in mb ) Visibility ( mi km ) Precip ( " mm )
12:15 am 00:15 Clear 61 16 49 9.6 66 66 SE 7 11 29.76 1008 10 16 0.00 0.00
12:35 am 00:35 Clear 59 15.1 49 9.7 70 70 SSE 8 13 29.77 1008 10 16 0.00 0.00
12:55 am 00:55 Clear 58 14.4 49 9.6 73 73 SE 8 13 29.77 1008 10 16 0.00 0.00
1:15 am 01:15 Clear 57 13.8 49 9.7 76 76 SE 7 11 29.78 1008 10 16 0.00 0.00
1:35 am 01:35 Clear 56 13.5 50 9.9 79 79 SSE 8 13 29.79 1009 10 16 0.00 0.00
1:55 am 01:55 Partly Cloudy 57 13.8 50 10.1 79 79 SSE 7 11 29.79 1009 10 16 0.00 0.00
2:15 am 02:15 Partly Cloudy 56 13.1 50 10.1 82 82 SSE 8 13 29.80 1009 10 16 0.00 0.00
2:35 am 02:35 Mostly Cloudy 55 12.6 50 9.8 83 83 SSE 8 13 29.80 1009 10 16 0.00 0.00
2:55 am 02:55 Partly Cloudy 55 12.5 50 10.1 85 85 SSE 8 13 29.79 1009 10 16 0.00 0.00
3:15 am 03:15 Partly Cloudy 57 13.7 51 10.5 81 81 S 8 13 29.78 1008 10 16 0.00 0.00
3:35 am 03:35 Partly Cloudy 59 14.8 51 10.8 77 77 SE 9 15 29.76 1008 10 16 0.00 0.00
3:55 am 03:55 Clear 58 14.7 52 10.9 78 78 S 8 13 29.75 1008 10 16 0.00 0.00
4:15 am 04:15 Clear 58 14.7 52 11.1 79 79 SSE 5 7 29.75 1008 10 16 0.00 0.00
4:35 am 04:35 Clear 53 11.6 49 9.4 86 86 E 3 6 29.78 1008 10 16 0.00 0.00
4:55 am 04:55 Clear 53 11.9 49 9.5 85 85 E 8 13 29.78 1008 10 16 0.00 0.00
5:15 am 05:15 Clear 56 13.6 52 11 84 84 ESE 6 9 29.77 1008 10 16 0.00 0.00
5:35 am 05:35 Clear 53 11.7 50 10 89 89 SSE 8 13 29.79 1009 10 16 0.00 0.00
5:55 am 05:55 Clear 53 11.9 50 10.2 89 89 SSE 9 15 29.79 1009 10 16 0.00 0.00
6:15 am 06:15 Clear 52 11.2 50 9.8 91 91 SSE 7 11 29.78 1009 10 16 0.00 0.00
6:35 am 06:35 Clear 52 11.1 50 9.8 92 92 SE 8 13 29.78 1009 10 16 0.00 0.00
6:55 am 06:55 Sunny 53 11.8 51 10.6 92 92 SE 9 15 29.79 1009 10 16 0.00 0.00
7:15 am 07:15 Sunny 54 12.4 53 11.4 94 94 S 10 17 29.78 1009 10 16 0.00 0.00
7:35 am 07:35 Sunny 55 12.9 53 11.6 92 92 SSE 8 13 29.79 1009 10 16 0.00 0.00
7:55 am 07:55 Sunny 57 14 54 12.3 90 90 SSE 12 19 29.78 1008 10 16 0.00 0.00
8:15 am 08:15 Sunny 59 14.9 55 12.6 86 86 S 13 20 29.77 1008 10 16 0.00 0.00
8:35 am 08:35 Sunny 61 15.9 55 12.8 82 82 S 13 20 29.76 1008 10 16 0.00 0.00
8:55 am 08:55 Sunny 62 16.5 55 12.5 77 77 S 16 26 29.75 1007 10 16 0.00 0.00
9:15 am 09:15 Sunny 64 17.5 55 12.6 73 73 S 13 20 29.75 1007 10 16 0.00 0.00
9:35 am 09:35 Mostly Cloudy 65 18.1 54 12.1 68 68 S 14 22 29.73 1007 10 16 0.00 0.00
9:55 am 09:55 Cloudy 66 18.9 54 12.3 66 66 S 13 20 29.73 1007 10 16 0.00 0.00
10:15 am 10:15 Partly Cloudy 67 19.4 54 12.3 64 64 S 13 20 29.72 1007 10 16 0.00 0.00
10:35 am 10:35 Partly Cloudy 68 20 53 11.9 60 60 SSW 12 19 29.72 1006 10 16 0.00 0.00
10:55 am 10:55 Partly Cloudy 70 21 54 12 57 57 SSW 13 20 29.71 1006 10 16 0.00 0.00
11:15 am 11:15 Partly Cloudy 70 21.2 53 11.8 55 55 SSW 12 19 29.71 1006 10 16 0.00 0.00
11:35 am 11:35 Cloudy 69 20.7 54 12.1 58 58 S 10 17 29.71 1006 10 16 0.00 0.00
11:55 am 11:55 Partly Cloudy 72 22.4 54 12.2 53 53 SSE 13 20 29.69 1005 10 16 0.00 0.00
12:15 pm 12:15 Sunny 73 22.7 54 12.1 51 51 SSE 10 17 29.69 1005 10 16 0.00 0.00
12:35 pm 12:35 Sunny 74 23.4 54 12 49 49 S 9 15 29.67 1005 10 16 0.00 0.00
12:55 pm 12:55 Sunny 76 24.2 54 12.3 47 47 S 14 22 29.66 1005 10 16 0.00 0.00
1:15 pm 13:15 Sunny 77 25 54 12 44 44 S 15 24 29.65 1004 10 16 0.00 0.00
1:35 pm 13:35 Sunny 77 25 54 12 44 44 SSE 10 17 29.64 1004 10 16 0.00 0.00
1:55 pm 13:55 Sunny 77 25.2 53 11.5 42 42 S 8 13 29.63 1003 10 16 0.00 0.00
2:15 pm 14:15 Sunny 79 26.1 52 11.3 40 40 SSW 12 19 29.62 1003 10 16 0.00 0.00
2:35 pm 14:35 Partly Cloudy 80 26.4 52 11.2 39 39 SSE 9 15 29.60 1002 10 16 0.00 0.00
2:55 pm 14:55 Partly Cloudy 80 26.7 52 10.9 37 37 S 9 15 29.59 1002 10 16 0.00 0.00
3:15 pm 15:15 Sunny 81 27.4 51 10.7 35 35 SSE 12 19 29.58 1002 10 16 0.00 0.00
3:35 pm 15:35 Sunny 81 27.4 52 11 36 36 SSE 10 17 29.57 1001 10 16 0.00 0.00
3:55 pm 15:55 Sunny 82 27.9 51 10.6 34 34 SE 14 22 29.56 1001 10 16 0.00 0.00
4:15 pm 16:15 Sunny 79 26.1 52 10.9 39 39 SSE 13 20 29.56 1001 10 16 0.00 0.00
4:35 pm 16:35 Sunny with Nearby Thunderstorms 79 25.9 53 11.4 40 40 SSE 13 20 29.56 1001 10 16 0.00 0.00
4:55 pm 16:55 Partly Cloudy with Light Rain 75 24 56 13.6 52 52 ESE 12 19 29.56 1001 10 16 0.00 0.00
5:15 pm 17:15 Partly Cloudy 75 23.8 56 13.2 52 52 SSE 6 9 29.56 1001 10 16 0.00 0.00
5:35 pm 17:35 Sunny 75 24.1 57 13.8 53 53 ESE 3 6 29.56 1001 10 16 0.00 0.00
5:55 pm 17:55 Sunny with Thunderstorms 74 23.2 56 13.5 55 55 SSE 6 9 29.56 1001 10 16 0.00 0.00
6:15 pm 18:15 Partly Cloudy 74 23.5 56 13.5 54 54 E 9 15 29.54 1000 10 16 0.00 0.00
6:35 pm 18:35 Mostly Cloudy 73 23 56 13.3 54 54 SSE 6 9 29.55 1001 10 16 0.00 0.00
6:55 pm 18:55 Partly Cloudy 71 21.7 57 13.7 61 61 SSE 7 11 29.54 1000 10 16 0.00 0.00
7:15 pm 19:15 Mostly Cloudy 67 19.5 59 14.9 75 75 S 22 35 29.54 1000 10 16 0.01 0.25
7:35 pm 19:35 Cloudy 65 18.5 57 13.9 75 75 S 17 28 29.56 1001 7 11 0.08 2.03
7:55 pm 19:55 Mostly Cloudy with Thunderstorms 66 19.1 58 14.3 74 74 S 18 30 29.55 1001 10 16 0.08 2.03
8:15 pm 20:15 Mostly Cloudy with Thunderstorms 67 19.7 54 12.4 63 63 S 30 48 29.53 1000 10 16 0.00 0.00
8:35 pm 20:35 Partly Cloudy with Light Rain 65 18.1 55 12.5 70 70 S 21 33 29.56 1001 10 16 0.01 0.25
8:55 pm 20:55 Mostly Cloudy 65 18.3 53 11.7 66 66 S 21 33 29.57 1001 10 16 0.01 0.25
9:15 pm 21:15 Cloudy with Nearby Thunderstorms 65 18.6 54 12 66 66 S 29 46 29.58 1002 3 5 0.08 2.03
9:35 pm 21:35 Windy with Storms Likely 66 18.9 53 11.5 62 62 SSE 22 35 29.60 1002 7 11 0.17 4.32
9:55 pm 21:55 Mostly Cloudy 67 19.2 57 13.8 71 71 S 26 43 29.60 1003 10 16 0.17 4.32
10:15 pm 22:15 Mostly Cloudy 67 19.4 58 14.7 74 74 S 28 44 29.59 1002 10 16 0.00 0.00

Powered by AerisWeather